Location: Unspecified
(44.0704°N, 88.6889°W)
Time: 14:04:59
(UTC+02:00)

Altair - Pass Details

Date: 18 June 2019
Orbit: 1501 x 1683 km, 47.2° (Epoch: 21 July)

Event Time Altitude Azimuth Distance (km) Brightness Sun altitude
Rises 02:23:00 0° 181° (S) 4,680 9.8 11.4°
Reaches altitude 10° 02:27:17 10° 163° (SSE) 3,731 9.2 10.7°
Maximum altitude 02:33:05 18° 125° (SE) 3,175 8.7 9.7°
Drops below altitude 10° 02:39:00 10° 86° (E) 3,832 9.1 8.8°
Sets 02:43:27 0° 70° (ENE) 4,855 9.7 8.0°
